[[[{"header":{"parameterUnit":"kt","parameterCategory":2,"dx":1,"dy":1,"la1":30.253999710083008,"la2":30.299108505249023,"lo1":-89.0895004272461,"lo2":-89.04439544677734,"nx":28,"ny":28,"refTime":"2022-10-18T21:00:00:Z","depth":0,"parameterNumber":1,"parameterNumberName":"U-component_of_WINDS"},"data":[-0.774,-0.777,-0.7751,-0.7777,-0.7765,-0.778,-0.7779,-0.7776,-0.777,-0.7786,-0.7791,-0.7776,-0.7762,-0.7765,-0.7771,-0.7764,-0.7769,-0.7794,-0.7782,-0.7688,-0.7674,-0.7661,-0.7653,-0.7794,-0.7794,-0.7883,-0.7884,-0.7884,-0.7673,-0.7661,-0.7669,-0.7664,-0.7671,-0.7635,-0.7629,-0.7637,-0.7652,-0.7643,-0.7648,-0.7661,-0.7668,-0.7646,-0.765,-0.7665,-0.765,-0.7668,-0.7668,-0.7667,-0.7565,-0.7557,-0.768,-0.768,-0.768,-0.768,-0.768,-0.768,-0.7547,-0.7566,-0.7552,-0.756,-0.7552,-0.7549,-0.7564,-0.7544,-0.7552,-0.7554,-0.7529,-0.7546,-0.7534,-0.753,-0.7524,-0.7537,-0.7514,-0.7528,-0.7532,-0.7537,-0.7546,-0.7425,-0.7536,-0.7536,-0.7535,-0.7535,-0.7535,0,-0.7449,-0.7432,-0.7438,-0.7439,-0.7444,-0.7443,-0.7439,-0.7447,-0.7405,-0.7413,-0.7424,-0.7427,-0.7433,-0.7442,-0.7442,-0.7432,-0.7399,-0.7393,-0.7403,-0.7417,-0.743,-0.7426,-0.7263,-0.739,-0.7389,-0.7388,-0.7387,-0.7387,-0.7323,-0.7347,-0.7322,-0.7329,-0.7322,-0.7334,-0.7337,-0.7298,-0.7303,-0.7292,-0.7311,-0.7318,-0.7323,-0.7343,-0.7321,-0.7326,-0.731,-0.7361,-0.7311,-0.7322,-0.7314,-0.7314,-0.7317,-0.7373,-0.7375,-0.7376,-0.7377,0,-0.7254,-0.7223,-0.7253,-0.7226,-0.7221,-0.7248,-0.7225,-0.7242,-0.7221,-0.7242,-0.7244,-0.7211,-0.7223,-0.7191,-0.7198,-0.7182,-0.7228,-0.7211,-0.7232,-0.7228,-0.7272,-0.727,-0.7416,-0.7435,-0.7284,-0.7286,-0.7287,0,-0.7136,-0.7168,-0.7119,-0.7139,-0.7173,-0.7132,-0.7168,-0.7153,-0.7142,-0.7158,-0.7113,-0.7129,-0.7086,-0.7098,-0.7074,-0.7105,-0.7105,-0.7096,-0.709,-0.7102,-0.7103,-0.7107,-0.7101,-0.7071,-0.707,-0.707,-0.7069,0,-0.7033,-0.7044,-0.7075,-0.7073,-0.7048,-0.7063,-0.7054,-0.7041,-0.7045,-0.7044,-0.7046,-0.7049,-0.7051,-0.7054,-0.7023,-0.699,-0.706,-0.7009,-0.705,-0.7051,-0.707,-0.707,-0.7205,-0.7068,-0.7068,-0.7068,-0.7068,0,-0.6934,-0.6933,-0.6982,-0.696,-0.6965,-0.6985,-0.6985,-0.6994,-0.6984,-0.6969,-0.6969,-0.6936,-0.6959,-0.6911,-0.6943,-0.691,-0.6915,-0.6907,-0.6909,-0.6912,-0.686,-0.6944,-0.7073,-0.7087,-0.6911,-0.691,-0.6909,0,-0.6827,-0.6867,-0.6832,-0.6879,-0.6894,-0.6843,-0.6864,-0.6856,-0.6839,-0.6849,-0.6829,-0.6841,-0.6798,-0.6798,-0.6818,-0.6799,-0.6842,-0.6792,-0.681,-0.6811,-0.6817,-0.6935,-0.6964,-0.7047,-0.6891,-0.6893,-0.6894,0,-0.674,-0.6709,-0.672,-0.6716,-0.6698,-0.671,-0.6734,-0.6737,-0.6745,-0.674,-0.6761,-0.6776,-0.6745,-0.6744,-0.6718,-0.674,-0.6812,-0.6704,-0.6704,-0.6727,-0.6879,-0.6906,-0.6921,-0.6789,-0.6791,-0.6793,-0.6881,0,-0.6601,-0.6616,-0.6643,-0.6635,-0.6639,-0.6666,-0.6632,-0.6641,-0.6615,-0.6596,-0.6625,-0.661,-0.6613,-0.662,-0.6595,-0.6655,-0.6641,-0.6608,-0.6561,-0.6637,-0.6666,-0.6677,-0.6521,-0.652,-0.6518,-0.6517,0,0,-0.6507,-0.6529,-0.6491,-0.6512,-0.6514,-0.6461,-0.6493,-0.6488,-0.6479,-0.6482,-0.6454,-0.6474,-0.6464,-0.6502,-0.6523,-0.6524,-0.6533,-0.6507,-0.6601,-0.661,-0.6619,-0.6649,-0.6662,-0.6515,-0.6514,-0.6514,-0.6514,0,-0.645,-0.6439,-0.647,-0.6463,-0.6451,-0.6429,-0.6437,-0.6416,-0.6405,-0.6432,-0.639,-0.6403,-0.642,-0.6415,-0.6415,-0.6501,-0.6469,-0.6504,-0.6562,-0.6588,-0.6599,-0.6609,-0.6642,-0.6654,-0.651,-0.651,-0.6511,0,-0.636,-0.6344,-0.6356,-0.6355,-0.6346,-0.6362,-0.6304,-0.6323,-0.6335,-0.6277,-0.6305,-0.6293,-0.6283,-0.6323,-0.634,-0.6316,-0.6414,-0.6376,-0.6384,-0.6386,-0.6409,-0.6423,-0.6435,-0.6277,-0.6276,-0.6276,0,0,-0.6316,-0.633,-0.6301,-0.634,-0.6337,-0.6306,-0.6311,-0.6286,-0.6277,-0.6274,-0.6258,-0.6252,-0.6261,-0.6268,-0.6275,-0.6323,-0.6319,-0.6349,-0.636,-0.6369,-0.6376,-0.6402,-0.6415,-0.6273,-0.6273,-0.6273,0,0,-0.6295,-0.6263,-0.6238,-0.6279,-0.6272,-0.6247,-0.6273,-0.6242,-0.6245,-0.6238,-0.6198,-0.6194,-0.6231,-0.622,-0.619,-0.6259,-0.6212,-0.6219,-0.6264,-0.6278,-0.6289,-0.6291,-0.613,0,0,0,0,0,-0.6219,-0.6266,-0.6244,-0.6246,-0.6245,-0.6259,-0.6259,-0.6226,-0.6194,-0.6215,-0.6196,-0.6161,-0.6196,-0.6168,-0.6171,-0.6206,-0.624,-0.6246,-0.6252,-0.6322,-0.6336,-0.6348,0,0,0,0,0,0,-0.622,-0.6222,-0.6243,-0.622,-0.622,-0.6257,-0.6196,-0.6188,-0.6191,-0.6184,-0.6166,-0.6161,-0.6133,-0.6164,-0.6167,-0.6201,-0.6129,-0.6243,-0.6248,-0.6252,-0.6326,-0.6338,-0.6348,0,0,0,0,0,-0.622,-0.6222,-0.6228,-0.6219,-0.6219,-0.6186,-0.6194,-0.6187,-0.6189,-0.616,-0.6154,-0.6164,-0.6135,-0.6136,-0.6166,-0.6201,-0.6126,-0.6128,-0.6246,-0.625,-0.6253,-0.6332,0,0,0,0,0,0,-0.622,-0.6216,-0.6227,-0.6226,-0.6199,-0.6184,-0.618,-0.6186,-0.6164,-0.6158,-0.6155,-0.615,-0.6137,-0.6137,-0.6138,-0.6202,-0.6124,-0.6126,-0.6127,-0.6249,-0.6252,-0.6255,0,0,0,0,0,0,-0.6215,-0.6215,-0.6227,-0.6203,-0.6199,-0.6181,-0.6178,-0.6199,-0.6164,-0.616,-0.6155,-0.6153,-0.6137,-0.6138,-0.6139,-0.6172,-0.6123,-0.6124,-0.6125,-0.6126,-0.6251,-0.6254,0,0,0,0,0,0,-0.6214,-0.6215,-0.6203,-0.62,-0.6196,-0.6178,-0.6199,-0.62,-0.6143,-0.6162,-0.6137,-0.6135,-0.6139,-0.6138,-0.614,-0.6173,-0.6173,-0.6123,-0.6124,-0.6124,-0.6125,0,0,0,0,0,0,0,-0.6214,-0.6219,-0.6235,-0.6197,-0.6193,-0.6213,-0.6213,-0.6213,-0.6143,-0.614,-0.6138,-0.6136,-0.6116,-0.6117,-0.6119,-0.6174,0,0,-0.6123,-0.6123,0,0,0,0,0,0,0,0,-0.6218,-0.6219,-0.6235,-0.6235,-0.6235,-0.6213,-0.6213,-0.6213,-0.6142,-0.614,-0.6139,-0.6137,-0.6116,-0.6117,-0.6119,0,0,0,0,0,0,0,0,0,0,0,0,0,0,0,-0.6235,-0.6235,0,-0.6213,-0.6213,-0.6213,-0.6142,-0.6141,-0.6139,-0.6137,-0.6117,-0.6118,-0.6118,0,0,0,0,0,0,0,0,0,0,0,0,0,0,0,0,0,0,0,0,0,0,0,0,0,0,0,0,0,0,0,0,0,0,0,0,0,0,0,0,0,0,0,0,0,0,0,0,0,0,0,0,0,0,0,0,0,0,0,0,0,0,0,0,0,0,0,0,0]}],[{"header":{"parameterUnit":"kt","parameterCategory":2,"dx":1,"dy":1,"la1":30.253999710083008,"la2":30.299108505249023,"lo1":-89.0895004272461,"lo2":-89.04439544677734,"nx":28,"ny":28,"refTime":"2022-10-18T21:00:00:Z","depth":0,"parameterNumber":2,"parameterNumberName":"V-component_of_WINDS"},"data":[-6.8767,-6.8866,-6.8888,-6.901,-6.905,-6.9137,-6.9175,-6.9225,-6.927,-6.9374,-6.9437,-6.9467,-6.9518,-6.9597,-6.9665,-6.9676,-6.9705,-6.9725,-6.9735,-6.9626,-6.9613,-6.9599,-6.958,-6.973,-6.9731,-6.9847,-6.9848,-6.9849,-6.8689,-6.8731,-6.8801,-6.8884,-6.8945,-6.8939,-6.9003,-6.9054,-6.913,-6.9185,-6.9248,-6.934,-6.9414,-6.9459,-6.9533,-6.9579,-6.958,-6.9598,-6.9596,-6.9605,-6.9488,-6.9467,-6.9596,-6.9596,-6.9596,-6.9596,-6.9596,-6.9596,-6.8554,-6.8611,-6.8675,-6.8751,-6.8798,-6.8853,-6.891,-6.8946,-6.9014,-6.9096,-6.9105,-6.9191,-6.9248,-6.9346,-6.9383,-6.945,-6.9433,-6.9459,-6.9466,-6.9473,-6.948,-6.9316,-6.9462,-6.9462,-6.9462,-6.9461,-6.9461,0,-6.8462,-6.8477,-6.8545,-6.8621,-6.8677,-6.8736,-6.8793,-6.8829,-6.8863,-6.8917,-6.8996,-6.9045,-6.9139,-6.9215,-6.9288,-6.9321,-6.932,-6.9319,-6.9338,-6.9338,-6.9329,-6.9339,-6.9152,-6.9315,-6.9314,-6.9313,-6.9313,-6.9312,-6.8331,-6.8394,-6.8469,-6.8514,-6.8551,-6.8621,-6.8668,-6.8693,-6.8741,-6.8814,-6.8861,-6.8937,-6.9,-6.912,-6.9158,-6.9228,-6.9228,-6.9289,-6.9238,-6.9235,-6.9234,-6.9232,-6.924,-6.93,-6.9301,-6.9303,-6.9304,0,-6.8256,-6.829,-6.8393,-6.846,-6.8479,-6.8543,-6.8599,-6.8656,-6.8683,-6.8764,-6.8784,-6.8827,-6.8902,-6.8931,-6.902,-6.9033,-6.9139,-6.9135,-6.9121,-6.9124,-6.9184,-6.918,-6.9369,-6.9396,-6.9236,-6.9237,-6.9238,0,-6.8159,-6.8239,-6.8286,-6.8344,-6.8434,-6.8458,-6.8546,-6.8578,-6.8628,-6.8692,-6.8694,-6.8754,-6.878,-6.8844,-6.8862,-6.8953,-6.8968,-6.8984,-6.8989,-6.8987,-6.8985,-6.9014,-6.9008,-6.8991,-6.899,-6.8989,-6.8989,0,-6.804,-6.8157,-6.8251,-6.8283,-6.8361,-6.8404,-6.8438,-6.8494,-6.8538,-6.8599,-6.8628,-6.8696,-6.8734,-6.8786,-6.881,-6.8775,-6.892,-6.8876,-6.8937,-6.8937,-6.897,-6.8968,-6.9126,-6.8987,-6.8987,-6.8987,-6.8986,0,-6.7968,-6.8032,-6.8161,-6.8227,-6.8257,-6.8317,-6.8388,-6.8446,-6.8504,-6.852,-6.8567,-6.8573,-6.8652,-6.8607,-6.8718,-6.8666,-6.8703,-6.8725,-6.873,-6.8741,-6.8692,-6.8782,-6.8926,-6.8944,-6.8749,-6.8747,-6.8745,0,-6.7826,-6.7965,-6.7987,-6.8108,-6.8177,-6.8178,-6.8245,-6.8296,-6.8323,-6.8384,-6.8412,-6.8481,-6.8453,-6.8479,-6.8529,-6.8561,-6.8628,-6.8552,-6.8641,-6.8644,-6.8631,-6.8763,-6.878,-6.8891,-6.872,-6.8722,-6.8724,0,-6.772,-6.7814,-6.7834,-6.7873,-6.7944,-6.8,-6.8076,-6.815,-6.819,-6.8244,-6.831,-6.8403,-6.8389,-6.8429,-6.8439,-6.849,-6.8583,-6.8466,-6.8468,-6.849,-6.8708,-6.8724,-6.8742,-6.8579,-6.8582,-6.8584,-6.8704,0,-6.761,-6.7683,-6.7737,-6.7819,-6.7866,-6.7942,-6.7974,-6.8019,-6.8027,-6.8054,-6.8147,-6.8193,-6.8266,-6.8292,-6.8298,-6.8404,-6.8392,-6.8373,-6.8334,-6.8419,-6.8459,-6.8476,-6.8272,-6.8271,-6.827,-6.8269,0,0,-6.7468,-6.7572,-6.7593,-6.7668,-6.771,-6.771,-6.7788,-6.7828,-6.7907,-6.7936,-6.7914,-6.8054,-6.8091,-6.8202,-6.8231,-6.8258,-6.8281,-6.8249,-6.8377,-6.8389,-6.84,-6.8443,-6.8459,-6.8268,-6.8267,-6.8267,-6.8267,0,-6.7436,-6.7477,-6.7554,-6.7597,-6.7661,-6.7686,-6.7704,-6.7767,-6.7788,-6.7878,-6.7876,-6.7935,-6.8043,-6.8086,-6.8122,-6.8236,-6.8231,-6.8255,-6.8309,-6.8368,-6.8381,-6.8392,-6.8437,-6.8452,-6.8265,-6.8265,-6.8265,0,-6.734,-6.7387,-6.7428,-6.7521,-6.7562,-6.763,-6.7598,-6.767,-6.7721,-6.7714,-6.7804,-6.7834,-6.7891,-6.799,-6.8035,-6.8016,-6.8184,-6.8134,-6.814,-6.8147,-6.8205,-6.8221,-6.8235,-6.8052,-6.8051,-6.805,0,0,-6.7308,-6.7374,-6.7432,-6.7516,-6.7543,-6.758,-6.7618,-6.763,-6.7683,-6.7704,-6.7742,-6.7792,-6.7856,-6.7898,-6.7958,-6.8061,-6.8077,-6.8107,-6.8117,-6.8125,-6.8136,-6.8196,-6.8212,-6.8047,-6.8047,-6.8047,0,0,-6.7292,-6.7363,-6.7361,-6.7463,-6.7515,-6.7576,-6.7626,-6.7625,-6.7683,-6.7678,-6.7698,-6.7712,-6.7804,-6.7832,-6.7786,-6.7945,-6.7906,-6.7917,-6.7924,-6.7937,-6.7947,-6.794,-6.7759,0,0,0,0,0,-6.7276,-6.7355,-6.7352,-6.7374,-6.749,-6.7577,-6.7592,-6.7612,-6.7585,-6.7625,-6.7656,-6.7647,-6.7812,-6.7772,-6.7793,-6.7844,-6.8006,-6.8013,-6.802,-6.8054,-6.8067,-6.8079,0,0,0,0,0,0,-6.7285,-6.7311,-6.735,-6.7414,-6.7441,-6.7575,-6.7534,-6.7541,-6.7581,-6.7579,-6.7641,-6.7649,-6.7666,-6.7763,-6.7781,-6.783,-6.7753,-6.8009,-6.8015,-6.8021,-6.8058,-6.8069,-6.8079,0,0,0,0,0,-6.7292,-6.7313,-6.7495,-6.7413,-6.7436,-6.7482,-6.7531,-6.7537,-6.7568,-6.7617,-6.7624,-6.758,-6.7667,-6.7683,-6.7774,-6.7821,-6.774,-6.7747,-6.8013,-6.8018,-6.8022,-6.8064,0,0,0,0,0,0,-6.7297,-6.7319,-6.75,-6.7507,-6.7385,-6.7474,-6.7489,-6.7533,-6.7604,-6.7612,-6.7556,-6.7553,-6.7668,-6.7681,-6.7693,-6.7817,-6.773,-6.7737,-6.7741,-6.8017,-6.8021,-6.8024,0,0,0,0,0,0,-6.7307,-6.7325,-6.7504,-6.7467,-6.7471,-6.7468,-6.7481,-6.7559,-6.7604,-6.7539,-6.7538,-6.7553,-6.7648,-6.7679,-6.7689,-6.7811,-6.7722,-6.7729,-6.7733,-6.7736,-6.802,-6.8023,0,0,0,0,0,0,-6.7315,-6.7331,-6.7465,-6.7468,-6.7471,-6.7558,-6.7537,-6.7655,-6.7575,-6.7535,-6.7569,-6.7566,-6.7647,-6.7657,-6.7686,-6.7804,-6.7809,-6.7723,-6.7727,-6.773,-6.7732,0,0,0,0,0,0,0,-6.7322,-6.7214,-6.7455,-6.7469,-6.7471,-6.7578,-6.758,-6.7582,-6.7575,-6.7572,-6.7569,-6.7567,-6.7685,-6.7693,-6.77,-6.7798,0,0,-6.7722,-6.7725,0,0,0,0,0,0,0,0,-6.7208,-6.7213,-6.7455,-6.7457,-6.7458,-6.7579,-6.758,-6.7582,-6.7574,-6.7572,-6.757,-6.7568,-6.7687,-6.7693,-6.7699,0,0,0,0,0,0,0,0,0,0,0,0,0,0,0,-6.7455,-6.7456,0,-6.7579,-6.758,-6.7582,-6.7574,-6.7572,-6.757,-6.7569,-6.7689,-6.7694,-6.7698,0,0,0,0,0,0,0,0,0,0,0,0,0,0,0,0,0,0,0,0,0,0,0,0,0,0,0,0,0,0,0,0,0,0,0,0,0,0,0,0,0,0,0,0,0,0,0,0,0,0,0,0,0,0,0,0,0,0,0,0,0,0,0,0,0,0,0,0,0]}]]]